TimePDT,TemperatureF,Dew PointF,Humidity,Sea Level PressureIn,VisibilityMPH,Wind Direction,Wind SpeedMPH,Gust SpeedMPH,PrecipitationIn,Events,Conditions,WindDirDegrees,DateUTC
12:53 AM,50.0,46.9,89,30.09,10.0,WNW,3.5,-,N/A,,Clear,300,2013-07-09 07:53:00
1:53 AM,53.1,46.9,80,30.09,10.0,North,5.8,-,N/A,,Clear,10,2013-07-09 08:53:00
2:53 AM,55.0,48.9,80,30.09,10.0,NNW,4.6,-,N/A,,Clear,340,2013-07-09 09:53:00
3:53 AM,51.1,46.9,86,30.11,10.0,NNW,3.5,-,N/A,,Clear,340,2013-07-09 10:53:00
4:53 AM,46.0,44.1,93,30.12,10.0,Calm,Calm,-,N/A,,Clear,0,2013-07-09 11:53:00
5:53 AM,48.9,46.0,90,30.13,10.0,North,3.5,-,N/A,,Clear,360,2013-07-09 12:53:00
6:53 AM,59.0,52.0,78,30.13,10.0,North,4.6,-,N/A,,Clear,360,2013-07-09 13:53:00
7:53 AM,64.9,52.0,63,30.13,10.0,NNE,6.9,-,N/A,,Clear,20,2013-07-09 14:53:00
8:53 AM,69.1,52.0,54,30.14,10.0,Variable,4.6,-,N/A,,Clear,0,2013-07-09 15:53:00
9:53 AM,72.0,53.1,51,30.15,10.0,Calm,Calm,-,N/A,,Clear,0,2013-07-09 16:53:00
10:53 AM,75.9,53.1,45,30.14,10.0,Calm,Calm,-,N/A,,Clear,0,2013-07-09 17:53:00
11:53 AM,78.1,51.1,39,30.12,10.0,Calm,Calm,-,N/A,,Clear,0,2013-07-09 18:53:00
12:53 PM,81.0,46.0,29,30.11,10.0,ESE,3.5,-,N/A,,Clear,120,2013-07-09 19:53:00
1:53 PM,82.0,46.0,28,30.09,10.0,Variable,3.5,-,N/A,,Clear,0,2013-07-09 20:53:00
2:53 PM,84.9,45.0,25,30.07,10.0,Variable,3.5,-,N/A,,Clear,0,2013-07-09 21:53:00
3:53 PM,84.9,42.1,22,30.06,10.0,ENE,3.5,-,N/A,,Clear,60,2013-07-09 22:53:00
4:53 PM,84.9,45.0,25,30.05,10.0,WNW,8.1,-,N/A,,Clear,290,2013-07-09 23:53:00
5:53 PM,84.0,43.0,24,30.03,10.0,North,4.6,-,N/A,,Clear,350,2013-07-10 00:53:00
6:53 PM,84.9,46.0,26,30.01,10.0,Calm,Calm,-,N/A,,Clear,0,2013-07-10 01:53:00
7:53 PM,77.0,57.9,52,30.00,10.0,Calm,Calm,-,N/A,,Clear,0,2013-07-10 02:53:00
8:53 PM,66.0,57.0,73,29.99,10.0,ENE,3.5,-,N/A,,Clear,70,2013-07-10 03:53:00
9:53 PM,60.1,51.1,72,30.00,10.0,Calm,Calm,-,N/A,,Clear,0,2013-07-10 04:53:00
10:53 PM,57.0,52.0,83,29.99,10.0,NW,5.8,-,N/A,,Clear,320,2013-07-10 05:53:00
11:53 PM,54.0,51.1,90,29.99,10.0,Calm,Calm,-,N/A,,Clear,0,2013-07-10 06:53:00